• în România
  • Lista ţărilor
  • Pe 7 zile
  • Temperatura apei
  • Hartă satelitară
  • Meteo pe hartă
  • Widget-uri
  • user-avatar
    Intrare

    Meteo pe oră la Namyur

    Astăzi, 15 Decembrie, Vineri

    Timp Temperatura Precipitaţii Vânt Presiune Umiditate
    00:00 -1°C° 0 mm 4 m/s 733 mmHg 93%
    01:00 -1°C° 0 mm 4 m/s 733 mmHg 93%
    02:00 -1°C° 0 mm 4 m/s 733 mmHg 92%
    03:00 -1°C° 0 mm 4 m/s 734 mmHg 92%
    04:00 -1°C° 0,1 mm 4 m/s 734 mmHg 93%
    05:00 -1°C° 0,1 mm 4 m/s 734 mmHg 93%
    06:00 +1°C° 0,1 mm 3 m/s 734 mmHg 94%
    07:00 +1°C° 0,1 mm 3 m/s 734 mmHg 94%
    08:00 +1°C° 0,1 mm 3 m/s 734 mmHg 94%
    09:00 +1°C° 0,1 mm 3 m/s 734 mmHg 94%
    10:00 +2°C° 0 mm 3 m/s 735 mmHg 92%
    11:00 +3°C° 0 mm 3 m/s 735 mmHg 90%
    12:00 +3°C° 0 mm 3 m/s 735 mmHg 88%
    13:00 +3°C° 0,2 mm 3 m/s 736 mmHg 90%
    14:00 +4°C° 0,2 mm 2 m/s 736 mmHg 92%
    15:00 +5°C° 0,2 mm 1 m/s 736 mmHg 93%
    16:00 +4°C° 0,2 mm 1 m/s 737 mmHg 94%
    17:00 +4°C° 0,2 mm 1 m/s 737 mmHg 94%
    18:00 +4°C° 0,2 mm 1 m/s 738 mmHg 95%
    19:00 +3°C° 0 mm 1 m/s 739 mmHg 95%
    20:00 +3°C° 0 mm 1 m/s 739 mmHg 96%
    21:00 +1°C° 0 mm 2 m/s 740 mmHg 96%
    22:00 +1°C° 0 mm 2 m/s 741 mmHg 96%
    23:00 +1°C° 0 mm 2 m/s 742 mmHg 96%

    Mâine, 16 Decembrie, Sâmbătă

    Timp Temperatura Precipitaţii Vânt Presiune Umiditate
    00:00 +2°C° 0 mm 1 m/s 742 mmHg 97%
    01:00 +1°C° 0 mm 2 m/s 743 mmHg 96%
    02:00 +1°C° 0 mm 2 m/s 744 mmHg 96%
    03:00 +1°C° 0 mm 2 m/s 744 mmHg 96%
    04:00 +1°C° 0,1 mm 2 m/s 745 mmHg 95%
    05:00 +1°C° 0,1 mm 2 m/s 746 mmHg 95%
    06:00 +1°C° 0,1 mm 2 m/s 746 mmHg 95%
    07:00 +1°C° 0,1 mm 3 m/s 747 mmHg 93%
    08:00 +1°C° 0,1 mm 3 m/s 748 mmHg 92%
    09:00 +1°C° 0,1 mm 3 m/s 748 mmHg 91%
    10:00 +2°C° 0,2 mm 3 m/s 749 mmHg 88%
    11:00 +3°C° 0,2 mm 4 m/s 749 mmHg 84%
    12:00 +3°C° 0,2 mm 4 m/s 749 mmHg 80%
    13:00 +3°C° 0,3 mm 4 m/s 750 mmHg 81%
    14:00 +3°C° 0,3 mm 4 m/s 750 mmHg 83%
    15:00 +1°C° 0,3 mm 4 m/s 751 mmHg 84%
    16:00 +1°C° 0,1 mm 4 m/s 751 mmHg 86%
    17:00 0°C° 0,1 mm 4 m/s 752 mmHg 88%
    18:00 0°C° 0,1 mm 4 m/s 752 mmHg 90%
    19:00 0°C° 0,1 mm 4 m/s 753 mmHg 90%
    20:00 0°C° 0,1 mm 4 m/s 754 mmHg 91%
    21:00 -1°C° 0,1 mm 4 m/s 754 mmHg 92%
    22:00 -1°C° 0,1 mm 4 m/s 754 mmHg 92%
    23:00 0°C° 0,1 mm 3 m/s 755 mmHg 92%

    Poimâine, 17 Decembrie, Duminică

    Timp Temperatura Precipitaţii Vânt Presiune Umiditate
    00:00 0°C° 0,1 mm 3 m/s 755 mmHg 93%
    01:00 0°C° 0,1 mm 3 m/s 756 mmHg 93%
    02:00 0°C° 0,1 mm 3 m/s 756 mmHg 93%
    03:00 -1°C° 0,1 mm 4 m/s 756 mmHg 93%
    04:00 0°C° 0,1 mm 3 m/s 757 mmHg 93%
    05:00 0°C° 0,1 mm 3 m/s 757 mmHg 93%
    06:00 0°C° 0,1 mm 3 m/s 757 mmHg 93%
    07:00 0°C° 0,1 mm 3 m/s 758 mmHg 92%
    08:00 0°C° 0,1 mm 3 m/s 758 mmHg 91%
    09:00 0°C° 0,1 mm 3 m/s 759 mmHg 90%
    10:00 0°C° 0 mm 4 m/s 759 mmHg 88%
    11:00 0°C° 0 mm 4 m/s 759 mmHg 86%
    12:00 +1°C° 0 mm 4 m/s 759 mmHg 84%
    13:00 +1°C° 0 mm 4 m/s 759 mmHg 84%
    14:00 +1°C° 0 mm 4 m/s 759 mmHg 84%
    15:00 +1°C° 0 mm 4 m/s 759 mmHg 84%
    16:00 +1°C° 0 mm 4 m/s 759 mmHg 84%
    17:00 0°C° 0 mm 5 m/s 759 mmHg 85%
    18:00 0°C° 0 mm 5 m/s 759 mmHg 85%
    19:00 0°C° 0,3 mm 5 m/s 758 mmHg 87%
    20:00 +1°C° 0,3 mm 6 m/s 758 mmHg 89%
    21:00 +1°C° 0,3 mm 6 m/s 758 mmHg 90%
    22:00 +2°C° 0,7 mm 7 m/s 757 mmHg 91%
    23:00 +2°C° 0,7 mm 7 m/s 757 mmHg 91%

    18 Decembrie, Luni

    Timp Temperatura Precipitaţii Vânt Presiune Umiditate
    00:00 +2°C° 0,7 mm 8 m/s 756 mmHg 92%
    01:00 +3°C° 1 mm 7 m/s 756 mmHg 93%
    02:00 +4°C° 1 mm 7 m/s 756 mmHg 94%
    03:00 +5°C° 1 mm 6 m/s 755 mmHg 95%
    04:00 +4°C° 0,3 mm 6 m/s 756 mmHg 93%
    05:00 +5°C° 0,3 mm 5 m/s 756 mmHg 92%
    06:00 +5°C° 0,3 mm 4 m/s 756 mmHg 90%
    07:00 +4°C° 0 mm 4 m/s 757 mmHg 89%
    08:00 +3°C° 0 mm 3 m/s 758 mmHg 88%
    09:00 +3°C° 0 mm 3 m/s 758 mmHg 87%
    10:00 +4°C° 0 mm 4 m/s 759 mmHg 84%
    11:00 +5°C° 0 mm 4 m/s 759 mmHg 81%
    12:00 +5°C° 0 mm 4 m/s 759 mmHg 78%
    13:00 +5°C° 0 mm 4 m/s 760 mmHg 81%
    14:00 +4°C° 0 mm 3 m/s 760 mmHg 84%
    15:00 +5°C° 0 mm 2 m/s 760 mmHg 87%
    16:00 +4°C° 0 mm 2 m/s 761 mmHg 89%
    17:00 +4°C° 0 mm 2 m/s 761 mmHg 91%
    18:00 +3°C° 0 mm 2 m/s 762 mmHg 93%
    19:00 +3°C° 0 mm 2 m/s 762 mmHg 94%
    20:00 +3°C° 0 mm 2 m/s 763 mmHg 94%
    21:00 +2°C° 0 mm 2 m/s 763 mmHg 95%
    22:00 +3°C° 0 mm 1 m/s 764 mmHg 95%
    23:00 +3°C° 0 mm 1 m/s 764 mmHg 96%

    19 Decembrie, Marţi

    Timp Temperatura Precipitaţii Vânt Presiune Umiditate
    00:00 +3°C° 0 mm 1 m/s 764 mmHg 96%
    01:00 +3°C° 0 mm 1 m/s 764 mmHg 96%
    02:00 +3°C° 0 mm 1 m/s 764 mmHg 96%
    03:00 +3°C° 0 mm 1 m/s 764 mmHg 96%
    04:00 +3°C° 0 mm 1 m/s 765 mmHg 96%
    05:00 +2°C° 0 mm 0 m/s 765 mmHg 96%
    06:00 +2°C° 0 mm 0 m/s 765 mmHg 96%
    07:00 +3°C° 0 mm 1 m/s 766 mmHg 96%
    08:00 +3°C° 0 mm 1 m/s 766 mmHg 96%
    09:00 +3°C° 0 mm 1 m/s 767 mmHg 95%
    10:00 +4°C° 0 mm 1 m/s 767 mmHg 92%
    11:00 +5°C° 0 mm 1 m/s 767 mmHg 90%
    12:00 +6°C° 0 mm 1 m/s 767 mmHg 87%
    13:00 +6°C° 0 mm 1 m/s 767 mmHg 89%
    14:00 +5°C° 0 mm 1 m/s 767 mmHg 90%
    15:00 +5°C° 0 mm 1 m/s 767 mmHg 92%
    16:00 +4°C° 0 mm 1 m/s 767 mmHg 92%
    17:00 +3°C° 0 mm 2 m/s 767 mmHg 93%
    18:00 +2°C° 0 mm 2 m/s 767 mmHg 93%
    19:00 +2°C° 0 mm 2 m/s 768 mmHg 93%
    20:00 +2°C° 0 mm 2 m/s 768 mmHg 92%
    21:00 +2°C° 0 mm 2 m/s 768 mmHg 92%
    22:00 +1°C° 0,1 mm 3 m/s 768 mmHg 91%
    23:00 +1°C° 0,1 mm 3 m/s 768 mmHg 91%

    20 Decembrie, Miercuri

    Timp Temperatura Precipitaţii Vânt Presiune Umiditate
    00:00 +1°C° 0,1 mm 3 m/s 768 mmHg 90%
    01:00 +2°C° 0,2 mm 3 m/s 768 mmHg 90%
    02:00 +2°C° 0,2 mm 3 m/s 768 mmHg 91%
    03:00 +2°C° 0,2 mm 3 m/s 768 mmHg 91%
    04:00 +3°C° 0,1 mm 3 m/s 767 mmHg 92%
    05:00 +3°C° 0,1 mm 3 m/s 767 mmHg 92%
    06:00 +3°C° 0,1 mm 3 m/s 767 mmHg 93%
    07:00 +3°C° 0,1 mm 3 m/s 768 mmHg 94%
    08:00 +3°C° 0,1 mm 3 m/s 768 mmHg 95%
    09:00 +3°C° 0,1 mm 3 m/s 768 mmHg 95%
    10:00 +5°C° 0 mm 2 m/s 768 mmHg 95%
    11:00 +6°C° 0 mm 2 m/s 768 mmHg 96%
    12:00 +6°C° 0 mm 2 m/s 768 mmHg 96%
    13:00 +6°C° 0 mm 2 m/s 768 mmHg 96%
    14:00 +7°C° 0 mm 2 m/s 768 mmHg 97%
    15:00 +7°C° 0 mm 2 m/s 768 mmHg 98%
    16:00 +7°C° 0 mm 2 m/s 768 mmHg 98%
    17:00 +7°C° 0 mm 2 m/s 768 mmHg 98%
    18:00 +7°C° 0 mm 2 m/s 769 mmHg 98%
    19:00 +7°C° 0 mm 2 m/s 769 mmHg 98%
    20:00 +7°C° 0 mm 2 m/s 769 mmHg 98%
    21:00 +7°C° 0 mm 2 m/s 769 mmHg 97%
    22:00 +7°C° 0 mm 2 m/s 769 mmHg 97%
    23:00 +7°C° 0 mm 2 m/s 769 mmHg 97%
    Arată mai mult